Regional Weather Roundup
Issued by NWS Upton, NY

Current Version | Previous Version | Text Only | Print | Product List | Glossary Off
Versions: 1 2 3 4 5 6 7 8 9 10 11 12 13 14 15 16 17 18 19 20 21 22 23 24 25 26 27 28 29 30 31 32 33 34 35 36 37 38 39 40 41 42 43 44 45 46 47 48 49 50
952 ASUS41 KOKX 070108 RWROKX REGIONAL WEATHER ROUNDUP NATIONAL WEATHER SERVICE NEW YORK NY 800 PM EST TUE DEC 06 2016 NOTE: "FAIR" INDICATES FEW OR NO CLOUDS BELOW 12,000 FEET WITH NO SIGNIFICANT WEATHER AND/OR OBSTRUCTIONS TO VISIBILITY. NYZ071-072-176-178-NJZ106-104-070200- NEW YORK CITY METRO AREA CITY SKY/WX TMP DP RH WIND PRES REMARKS Central Park LGT RAIN 40 36 86 E9 29.96F FOG WCI 34 Wall St Helipt CLOUDY 42 38 85 NE13 29.95S Bronx Bot Gard NOT AVBL LaGuardia APRT LGT RAIN 43 36 76 NE15 29.95F Kennedy INTL LGT RAIN 42 36 79 NE13 29.94F Breezy Point N/A 39 N/A N/A NE12 N/A WCI 32 Newark/Liberty RAIN 41 37 86 NE13 29.94F FOG Teterboro RAIN 41 35 79 NE8 29.94F $$ NYZ177-179-078>081-070200- LONG ISLAND NEW YORK CITY SKY/WX TMP DP RH WIND PRES REMARKS Jones Beach N/A 41 N/A N/A NE16 N/A Matinecock PT N/A 43 N/A N/A E20G26 N/A Farmingdale LGT RAIN 41 35 79 NE8 29.94F MacArthur/ISP LGT RAIN 41 35 79 NE9 29.94F Shirley LGT RAIN 41 33 73 N5 29.96F Westhampton CLOUDY 45 35 68 E6 29.98F Southampton NOT AVBL Bridgehampton NOT AVBL East Hampton CLOUDY 44 35 70 E6 29.98S Montauk N/A 45 36 70 E6 30.00S $$ NYZ052-065-067-070200- HUDSON VALLEY CITY SKY/WX TMP DP RH WIND PRES REMARKS White Plains LGT RAIN 39 35 86 NE7 29.95F WCI 34 Newburgh LGT RAIN 36 34 93 SE12 29.99S WCI 27 Montgomery LGT RAIN 35 33 92 E3 29.97F Poughkeepsie LGT RAIN 38 33 82 SE9 29.98S WCI 31 Albany CLOUDY 35 29 78 N5 30.00R WCI 31 $$ NJZ001-105-106-008-010-013-015-019>022-104-070200- NEW JERSEY CITY SKY/WX TMP DP RH WIND PRES REMARKS Newark/Liberty RAIN 41 37 86 NE13 29.94F FOG Teterboro RAIN 41 35 79 NE8 29.94F Caldwell LGT RAIN 37 36 93 NE5 29.95F WCI 34 Somerville LGT RAIN 37 34 89 NE8 29.91 FOG WCI 31 Linden LGT RAIN 41 37 84 E15G21 29.92F Sussex LGT SNOW 33 32 96 NE8 29.94F FOG WCI 26 Andover N/A 33 32 96 VRB5 29.91F WCI 29 Trenton RAIN 42 39 89 E10 29.88F Millville RAIN 46 45 96 NE17 29.82R FOG Atlantic City RAIN 46 43 89 E20G26 29.82F FOG Wrightstown LGT RAIN 42 40 93 NE13 29.86R Toms River LGT RAIN 43 41 93 E9G17 29.89S Belmar RAIN 42 39 89 NE13 29.89F $$ PAZ047>061-062-071-070200- EASTERN PENNSYLVANIA CITY SKY/WX TMP DP RH WIND PRES REMARKS Philadelphia LGT RAIN 44 41 89 E12 29.87F FOG Allentown LGT RAIN 35 32 88 NE9 29.90F WCI 28 Scranton LGT RAIN 34 33 96 N3 29.88R FOG $$ CTZ002-004>006-009-010-012-RIZ004-006-007-MAZ004-011-015-070200- SOUTHERN NEW ENGLAND IN CT CITY SKY/WX TMP DP RH WIND PRES REMARKS Bradley INTL CLOUDY 38 28 67 CALM 30.01R Hartford CLOUDY 42 29 59 CALM 30.01R Danbury RAIN 36 32 85 SE6 30.00R FOG WCI 31 Wtrbury/Oxford LGT RAIN 37 30 75 SE9 30.00R FOG WCI 31 Bridgeport RAIN 43 35 73 E10 29.99S Meriden CLOUDY 41 31 67 CALM 30.01R New Haven RAIN 41 34 76 SE5 30.00R Chester LGT RAIN 41 30 65 CALM 30.00R Groton CLOUDY 44 33 65 NE9 30.00S Wilimantic CLOUDY 39 32 76 NE3 30.01S IN RI CITY SKY/WX TMP DP RH WIND PRES REMARKS Providence CLOUDY 39 29 67 CALM 30.02S Block Island CLOUDY 44 36 73 E9 30.00R Westerly CLOUDY 41 30 65 NE5 30.01S IN MA CITY SKY/WX TMP DP RH WIND PRES REMARKS Boston CLOUDY 41 32 70 E7 30.02F Worcester CLOUDY 35 26 69 CALM 29.99R Westfield CLOUDY 37 31 78 N3 30.00F Provincetown CLOUDY 41 32 70 E8 30.02S Nantucket CLOUDY 42 31 64 E8 30.00S $$ ANZ330-335-338-340-345-350-353-355-070200- COASTAL MARINE OBSERVATIONS STATION/POSITION TIME SKY/WX TEMP WIND PRES VSBY WAVE AIR SEA DIR/SP/G HT/PER (UTC) (F) (DEG/KT/KT) (MB) (MI) (FT/S) NY HARB ENTRANCE 2350 47 52 100/ 16/ 21 1014.3 4/ 5 20 S FIRE ISLAND 2350 48 54 90/ 16/ 17 1013.8 4/ 5 GREAT SOUTH BAY 0030 43 43 N/A 23 SSW MONTAUK P 2350 46 54 110/ 16/ 19 1015.2 4/ 5 15 E BARNEGAT LI 0030 53 N/A 5/ 5 HUDSON CANYON 2350 52 57 1013.2 5/ 5 KINGS POINT 0012 42 48 1014.7 EXECUTION ROCKS 0030 44 70/ 14/ 17 N/A CENTRAL LI SOUND 0015 45 50 90/ 12/ 16 N/A 1/ 3 EASTERN LI SOUND NOT AVBL ROBBINS REEF 0012 43 70/ 17/ 19 1013.9 $$ >>>>>>>>>>>>>>>>>>>>>>>>>>>> KEY <<<<<<<<<<<<<<<<<<<<<<<<<<< > < > SKY/WX - Sky Condition/Present Weather < > TMP - Temperature in Fahrenheit < > DP - Dew Point in Fahrenheit < > RH - Relative Humidity in Percent < > WIND - Direction (from) and Speed in MPH < > PRES - Mean Sea Level Pressure (inches of Hg) < > WCI - Wind Chill Index < > VSB - VISIBILITY IN MILES < > HX - HEAT INDEX < > TC - TEMPERATURE IN CELSIUS < > VRB - VARIABLE WIND DIRECTION < > < >>>>>>>>>>>>>>>>>>>>>>>>>>>> KEY <<<<<<<<<<<<<<<<<<<<<<<<<<<

USA.gov is the U.S. government's official web portal to all federal, state and local government web resources and services.